[[{"header":{"parameterUnit":"m.s-1","parameterCategory":1,"la1":30.2991,"la2":30.254,"lo1":-89.0895,"lo2":-89.0444,"dy":0.0017,"dx":0.0017,"nx":28,"ny":28,"refTime":"2024-06-15T03:00:00:Z","depth":0,"parameterNumber":2,"parameterNumberName":"U-component_of_WINDS"},"data":[0,0,0,0,0,0,0,0,0,0,0,0,0,0,0,0,0,0,0,0,0,0,0,0,0,0,0,0,0,0,0,0,0,0,0,0,0,0,0,0,0,0,0,0,0,0,0,0,0,0,0,0,0,0,0,0,0,0,-3.7162,-3.7164,0,-3.7269,-3.727,-3.7272,-3.7244,-3.7242,-3.724,-3.7238,-3.7345,-3.7349,-3.7354,0,0,0,0,0,0,0,0,0,0,0,0,0,-3.6932,-3.6936,-3.7162,-3.7164,-3.7165,-3.7269,-3.727,-3.7272,-3.7245,-3.7242,-3.724,-3.7237,-3.7343,-3.7349,-3.7355,0,0,0,0,0,0,0,0,0,0,0,0,0,-3.7034,-3.6937,-3.7162,-3.7164,-3.7165,-3.7269,-3.7271,-3.7272,-3.7245,-3.7242,-3.7239,-3.7236,-3.7341,-3.7348,-3.7355,-3.7463,0,0,-3.7377,-3.738,0,0,0,0,0,0,0,0,-3.7029,-3.7043,-3.7162,-3.7164,-3.7166,-3.724,-3.7228,-3.7336,-3.7246,-3.7215,-3.7238,-3.7234,-3.7312,-3.7322,-3.7349,-3.7468,-3.7472,-3.7378,-3.7382,-3.7385,-3.7387,0,0,0,0,0,0,0,-3.7021,-3.7038,-3.7204,-3.7164,-3.7166,-3.7158,-3.717,-3.7248,-3.728,-3.7217,-3.7215,-3.7229,-3.7313,-3.7342,-3.7351,-3.7474,-3.7378,-3.7384,-3.7389,-3.7391,-3.7685,-3.7688,0,0,0,0,0,0,-3.7013,-3.7032,-3.7201,-3.7208,-3.7088,-3.7165,-3.7178,-3.7219,-3.7279,-3.7285,-3.7231,-3.7227,-3.7331,-3.7342,-3.7354,-3.7482,-3.7385,-3.7392,-3.7396,-3.7681,-3.7685,-3.7689,0,0,0,0,0,0,-3.7009,-3.7029,-3.7197,-3.712,-3.714,-3.7173,-3.722,-3.7223,-3.7252,-3.729,-3.7295,-3.7255,-3.7329,-3.7344,-3.7436,-3.7486,-3.7395,-3.7402,-3.7677,-3.7682,-3.7687,-3.774,0,0,0,0,0,0,-3.7002,-3.7027,-3.7069,-3.7121,-3.7145,-3.7277,-3.7223,-3.7228,-3.7265,-3.726,-3.7313,-3.7319,-3.7328,-3.7425,-3.7443,-3.7494,-3.7407,-3.7673,-3.7679,-3.7686,-3.7734,-3.7746,-3.7757,0,0,0,0,0,-3.6994,-3.7079,-3.7071,-3.7092,-3.7198,-3.728,-3.7294,-3.7302,-3.7269,-3.7311,-3.7335,-3.7318,-3.7478,-3.7435,-3.7454,-3.7508,-3.7669,-3.7677,-3.7685,-3.7728,-3.7744,-3.7757,0,0,0,0,0,0,-3.7032,-3.7086,-3.7078,-3.7183,-3.7227,-3.7275,-3.7328,-3.7319,-3.7373,-3.7366,-3.7374,-3.7386,-3.7479,-3.7503,-3.7454,-3.7615,-3.7569,-3.7581,-3.7595,-3.761,-3.7621,-3.7612,-3.7413,0,0,0,0,0,-3.7052,-3.7116,-3.716,-3.7248,-3.7271,-3.7296,-3.7332,-3.7335,-3.7381,-3.7399,-3.743,-3.7474,-3.7534,-3.7574,-3.7632,-3.7738,-3.7748,-3.7785,-3.7796,-3.7806,-3.7815,-3.7871,-3.7887,-3.7715,-3.7715,-3.7715,0,0,-3.7095,-3.7133,-3.7172,-3.7256,-3.7291,-3.7355,-3.7312,-3.7382,-3.7429,-3.741,-3.7497,-3.7522,-3.7572,-3.7671,-3.7716,-3.7694,-3.7866,-3.7816,-3.7823,-3.7827,-3.7881,-3.7897,-3.7912,-3.772,-3.7719,-3.7718,0,0,-3.7206,-3.7242,-3.7318,-3.7354,-3.7408,-3.7424,-3.7442,-3.7492,-3.7508,-3.7596,-3.7583,-3.7639,-3.7743,-3.7779,-3.781,-3.7935,-3.792,-3.7954,-3.8013,-3.8068,-3.8081,-3.8093,-3.8135,-3.8151,-3.7964,-3.7964,-3.7964,0,-3.7252,-3.7349,-3.7359,-3.743,-3.7466,-3.7453,-3.753,-3.7564,-3.7633,-3.7658,-3.7633,-3.7763,-3.7796,-3.7902,-3.7932,-3.7959,-3.7979,-3.7946,-3.8079,-3.8091,-3.8102,-3.8142,-3.8158,-3.7967,-3.7967,-3.7966,-3.7966,0,-3.7402,-3.7469,-3.7525,-3.7592,-3.7635,-3.7709,-3.7729,-3.7771,-3.7771,-3.7789,-3.7879,-3.7918,-3.7983,-3.8009,-3.8009,-3.8115,-3.8099,-3.8077,-3.803,-3.8122,-3.816,-3.8175,-3.7972,-3.7971,-3.797,-3.7969,0,0,-3.7537,-3.761,-3.763,-3.7659,-3.7718,-3.7769,-3.7842,-3.7906,-3.7941,-3.799,-3.8049,-3.8138,-3.8118,-3.8154,-3.8158,-3.8206,-3.83,-3.8178,-3.8179,-3.8197,-3.8416,-3.8431,-3.8449,-3.8292,-3.8295,-3.8297,-3.8411,0,-3.7651,-3.7779,-3.779,-3.7905,-3.7966,-3.7955,-3.8018,-3.806,-3.8079,-3.8133,-3.8154,-3.8216,-3.8186,-3.8207,-3.8255,-3.8278,-3.8343,-3.8271,-3.8345,-3.8348,-3.833,-3.8469,-3.8485,-3.859,-3.8426,-3.8429,-3.8431,0,-3.78,-3.7853,-3.7974,-3.8023,-3.8049,-3.8106,-3.8164,-3.8217,-3.8264,-3.8275,-3.8315,-3.8313,-3.8386,-3.8339,-3.8439,-3.8389,-3.8421,-3.8437,-3.8441,-3.8446,-3.8393,-3.8475,-3.8624,-3.8639,-3.8454,-3.8452,-3.8451,0,-3.7884,-3.7986,-3.8071,-3.8097,-3.8157,-3.8196,-3.8223,-3.8267,-3.8304,-3.8356,-3.838,-3.8439,-3.8471,-3.8517,-3.853,-3.8495,-3.8629,-3.8584,-3.8638,-3.8638,-3.8664,-3.8662,-3.8818,-3.869,-3.8689,-3.8689,-3.8689,0,-3.8008,-3.8082,-3.8109,-3.8161,-3.8243,-3.8255,-3.8335,-3.836,-3.8399,-3.8454,-3.8449,-3.8501,-3.8517,-3.8572,-3.8583,-3.8662,-3.8678,-3.8687,-3.8688,-3.8686,-3.8684,-3.8705,-3.8697,-3.8693,-3.8692,-3.8691,-3.8691,0,-3.8114,-3.8136,-3.8227,-3.8276,-3.829,-3.8348,-3.839,-3.8439,-3.8458,-3.8529,-3.8546,-3.8575,-3.8639,-3.8658,-3.8735,-3.8742,-3.8835,-3.8831,-3.8819,-3.8818,-3.8871,-3.8865,-3.9044,-3.9067,-3.8925,-3.8926,-3.8927,0,-3.8191,-3.8247,-3.8302,-3.8339,-3.8368,-3.8428,-3.8466,-3.848,-3.852,-3.8577,-3.8619,-3.8683,-3.8734,-3.8837,-3.8864,-3.8923,-3.8919,-3.8977,-3.8927,-3.8922,-3.8916,-3.8912,-3.8916,-3.8986,-3.8987,-3.8989,-3.899,0,-3.8324,-3.8331,-3.8387,-3.8446,-3.8492,-3.854,-3.8585,-3.8615,-3.8636,-3.8681,-3.8746,-3.8786,-3.8865,-3.8927,-3.8986,-3.9012,-3.9004,-3.9006,-3.9021,-3.9017,-3.9007,-3.9011,-3.8842,-3.9001,-3.9,-3.8999,-3.8998,-3.8998,-3.8416,-3.8465,-3.8511,-3.8572,-3.8608,-3.8651,-3.8699,-3.8724,-3.878,-3.8845,-3.885,-3.892,-3.8965,-3.9044,-3.9073,-3.9128,-3.911,-3.9133,-3.9138,-3.9143,-3.9146,-3.9001,-3.9139,-3.9139,-3.9139,-3.9138,-3.9138,0,-3.8546,-3.8575,-3.8632,-3.8696,-3.8744,-3.8733,-3.8783,-3.8824,-3.8886,-3.8929,-3.8979,-3.9054,-3.9115,-3.9147,-3.9207,-3.9244,-3.9242,-3.9259,-3.9255,-3.9261,-3.916,-3.9139,-3.926,-3.926,-3.926,-3.926,-3.926,-3.926,-3.8619,-3.8701,-3.8714,-3.8813,-3.8842,-3.8911,-3.894,-3.8978,-3.9012,-3.9096,-3.9147,-3.9168,-3.9206,-3.9269,-3.9323,-3.9331,-3.9353,-3.9372,-3.9377,-3.9281,-3.9269,-3.9257,-3.9237,-3.9377,-3.9377,-3.9474,-3.9475,-3.9476]},{"header":{"parameterUnit":"m.s-1","parameterCategory":1,"la1":30.2991,"la2":30.254,"lo1":-89.0895,"lo2":-89.0444,"dy":0.0017,"dx":0.0017,"nx":28,"ny":28,"refTime":"2024-06-15T03:00:00:Z","depth":0,"parameterNumber":3,"parameterNumberName":"V-component_of_WINDS"},"data":[0,0,0,0,0,0,0,0,0,0,0,0,0,0,0,0,0,0,0,0,0,0,0,0,0,0,0,0,0,0,0,0,0,0,0,0,0,0,0,0,0,0,0,0,0,0,0,0,0,0,0,0,0,0,0,0,0,0,1.9549,1.9549,0,1.9609,1.961,1.9611,1.9595,1.9593,1.9592,1.9591,1.965,1.9653,1.9655,0,0,0,0,0,0,0,0,0,0,0,0,0,1.9417,1.9419,1.9549,1.9549,1.955,1.9609,1.961,1.9611,1.9595,1.9593,1.9592,1.9591,1.9649,1.9652,1.9655,0,0,0,0,0,0,0,0,0,0,0,0,0,1.9475,1.942,1.9549,1.9549,1.955,1.9609,1.961,1.9611,1.9595,1.9593,1.9592,1.959,1.9648,1.9652,1.9656,1.9717,0,0,1.9668,1.967,0,0,0,0,0,0,0,0,1.9472,1.948,1.9549,1.9549,1.955,1.9593,1.9585,1.9646,1.9596,1.9578,1.9591,1.9589,1.9632,1.9637,1.9653,1.9719,1.9722,1.9669,1.9671,1.9673,1.9674,0,0,0,0,0,0,0,1.9468,1.9477,1.9573,1.9549,1.9551,1.9546,1.9552,1.9597,1.9614,1.9579,1.9578,1.9586,1.9632,1.9649,1.9654,1.9723,1.9668,1.9672,1.9674,1.9676,1.9843,1.9845,0,0,0,0,0,0,1.9464,1.9474,1.9571,1.9574,1.9506,1.955,1.9557,1.9581,1.9614,1.9617,1.9587,1.9585,1.9643,1.9649,1.9656,1.9729,1.9673,1.9676,1.9679,1.9841,1.9844,1.9846,0,0,0,0,0,0,1.9461,1.9472,1.9568,1.9524,1.9536,1.9554,1.9581,1.9583,1.9599,1.962,1.9623,1.9601,1.9642,1.965,1.9702,1.9731,1.9678,1.9682,1.9839,1.9842,1.9845,1.9877,0,0,0,0,0,0,1.9457,1.9472,1.9495,1.9525,1.9538,1.9614,1.9583,1.9585,1.9607,1.9604,1.9633,1.9637,1.9641,1.9696,1.9706,1.9736,1.9685,1.9836,1.984,1.9844,1.9873,1.9881,1.9887,0,0,0,0,0,1.9453,1.9501,1.9496,1.9508,1.9569,1.9616,1.9623,1.9628,1.9609,1.9633,1.9646,1.9636,1.9727,1.9702,1.9713,1.9744,1.9835,1.9839,1.9844,1.987,1.9879,1.9887,0,0,0,0,0,0,1.9473,1.9505,1.95,1.956,1.9585,1.9613,1.9643,1.9637,1.9668,1.9664,1.9668,1.9675,1.9728,1.9741,1.9713,1.9805,1.9778,1.9785,1.9794,1.9803,1.9809,1.9805,1.9688,0,0,0,0,0,1.9484,1.9521,1.9547,1.9597,1.961,1.9624,1.9645,1.9647,1.9673,1.9683,1.97,1.9726,1.976,1.9782,1.9815,1.9876,1.9882,1.9903,1.9909,1.9915,1.9921,1.9954,1.9964,1.9861,1.9861,1.9861,0,0,1.9508,1.953,1.9553,1.9601,1.9621,1.9658,1.9633,1.9673,1.9701,1.9689,1.9739,1.9753,1.9781,1.9838,1.9864,1.9851,1.9951,1.9921,1.9925,1.9928,1.996,1.9969,1.9978,1.9864,1.9864,1.9863,0,0,1.957,1.9591,1.9635,1.9656,1.9688,1.9697,1.9708,1.9737,1.9746,1.9797,1.9789,1.9822,1.9881,1.9901,1.9919,1.9992,1.9983,2.0002,2.0037,2.007,2.0078,2.0085,2.0111,2.012,2.0008,2.0008,2.0008,0,1.9595,1.9652,1.9658,1.97,1.9721,1.9714,1.9758,1.9778,1.9818,1.9833,1.9818,1.9893,1.9912,1.9973,1.9991,2.0006,2.0018,1.9998,2.0077,2.0084,2.0091,2.0115,2.0125,2.001,2.001,2.001,2.001,0,1.9681,1.9721,1.9752,1.9793,1.9818,1.9861,1.9873,1.9898,1.9898,1.9909,1.9961,1.9984,2.0021,2.0036,2.0036,2.0098,2.0089,2.0076,2.0048,2.0102,2.0125,2.0135,2.0013,2.0013,2.0012,2.0011,0,0,1.9756,1.9801,1.9812,1.9831,1.9866,1.9896,1.9939,1.9976,1.9998,2.0026,2.0061,2.0112,2.0101,2.0121,2.0124,2.0153,2.0208,2.0136,2.0136,2.0148,2.0278,2.0288,2.0298,2.0204,2.0205,2.0207,2.0276,0,1.9821,1.9897,1.9904,1.9972,2.0008,2.0003,2.004,2.0065,2.0077,2.011,2.0122,2.0159,2.014,2.0153,2.0182,2.0196,2.0234,2.0191,2.0236,2.0237,2.0228,2.0311,2.032,2.0384,2.0285,2.0286,2.0288,0,1.9906,1.9939,2.001,2.0041,2.0057,2.009,2.0126,2.0157,2.0186,2.0192,2.0217,2.0216,2.0259,2.0232,2.0291,2.0262,2.0281,2.0291,2.0293,2.0297,2.0265,2.0316,2.0405,2.0414,2.0302,2.0301,2.03,0,1.9953,2.0015,2.0066,2.0082,2.0119,2.0143,2.0159,2.0186,2.0209,2.024,2.0255,2.0291,2.031,2.0337,2.0346,2.0325,2.0406,2.0378,2.0412,2.0412,2.0428,2.0426,2.0521,2.0442,2.0442,2.0441,2.0441,0,2.0024,2.0068,2.0087,2.0119,2.0168,2.0176,2.0225,2.024,2.0264,2.0298,2.0296,2.0327,2.0337,2.037,2.0377,2.0426,2.0435,2.0441,2.0442,2.0441,2.044,2.0452,2.0448,2.0444,2.0443,2.0443,2.0442,0,2.0084,2.0099,2.0154,2.0186,2.0195,2.023,2.0256,2.0286,2.0299,2.0342,2.0352,2.0371,2.041,2.0422,2.0469,2.0474,2.0531,2.0528,2.0521,2.0521,2.0554,2.055,2.0658,2.0673,2.0585,2.0586,2.0587,0,2.0128,2.0162,2.0198,2.0221,2.0239,2.0276,2.03,2.031,2.0334,2.0371,2.0396,2.0435,2.0467,2.053,2.0547,2.0584,2.0581,2.0617,2.0587,2.0585,2.0581,2.0579,2.0582,2.0622,2.0623,2.0624,2.0624,0,2.0205,2.0211,2.0245,2.0283,2.0312,2.0342,2.0371,2.0389,2.0404,2.0431,2.0472,2.0497,2.0546,2.0585,2.0622,2.0638,2.0634,2.0634,2.0644,2.0642,2.0637,2.064,2.0536,2.0631,2.0631,2.063,2.063,2.0629,2.0258,2.0288,2.0318,2.0357,2.038,2.0408,2.0438,2.0455,2.0489,2.053,2.0534,2.0578,2.0607,2.0656,2.0675,2.0709,2.0699,2.0713,2.0716,2.0719,2.0722,2.0632,2.0716,2.0716,2.0716,2.0716,2.0715,0,2.0334,2.0354,2.0389,2.0431,2.0461,2.0456,2.0488,2.0514,2.0553,2.0581,2.0613,2.066,2.0698,2.0719,2.0757,2.0781,2.078,2.079,2.0788,2.0792,2.0729,2.0717,2.0791,2.0791,2.0791,2.0791,2.0791,2.0791,2.0377,2.0428,2.0438,2.05,2.0519,2.0563,2.0582,2.0607,2.063,2.0683,2.0715,2.0729,2.0754,2.0794,2.0829,2.0834,2.0848,2.086,2.0864,2.0804,2.0796,2.0789,2.0778,2.0863,2.0863,2.0924,2.0925,2.0925]}]]